,,Stat6,,Stat2,,Stat8,,Stat9,,Stat10,,Wind1,,Wind1,
time,status,PA1M_AVG,status,PR1M_SUM,status,RH1M_AVG,status,SR1M_AVG,status,TA1M_AVG,status,W1dAve1m,status,W1sAve1m,
2004-02-05, 00:00:00,VALID,918.153,VALID,0,VALID,98.1513,VALID,0,VALID,20.2194,VALID,74,VALID,0.315048,
2004-02-05, 00:01:00,VALID,918.176,VALID,0,VALID,97.4748,VALID,0,VALID,20.1094,VALID,74,VALID,0.437863,
2004-02-05, 00:02:00,VALID,918.209,VALID,0,VALID,96.7984,VALID,0,VALID,20.003,VALID,73,VALID,0.358507,
2004-02-05, 00:03:00,VALID,918.236,VALID,0,VALID,96.9649,VALID,-0.0339617,VALID,19.9549,VALID,63,VALID,0.433949,
2004-02-05, 00:04:00,VALID,918.273,VALID,0,VALID,97.19,VALID,0,VALID,19.9223,VALID,63,VALID,0.341797,
2004-02-05, 00:05:00,VALID,918.29,VALID,0,VALID,97.6923,VALID,-0.0169808,VALID,19.9288,VALID,63,VALID,0.362537,
2004-02-05, 00:06:00,VALID,918.297,VALID,0,VALID,98.1742,VALID,-0.0339617,VALID,19.9643,VALID,29,VALID,0.563072,
2004-02-05, 00:07:00,VALID,918.298,VALID,0,VALID,98.3179,VALID,0,VALID,20.003,VALID,16,VALID,0.307813,
2004-02-05, 00:08:00,VALID,918.271,VALID,0,VALID,98.3713,VALID,-0.0169808,VALID,20.0254,VALID,16,VALID,0.160714,
2004-02-05, 00:09:00,VALID,918.252,VALID,0,VALID,98.3599,VALID,-0.0339617,VALID,20.0806,VALID,16,VALID,0.249132,
2004-02-05, 00:10:00,VALID,918.229,VALID,0,VALID,98.2111,VALID,-0.0169808,VALID,20.1161,VALID,16,VALID,0.0666921,
2004-02-05, 00:11:00,VALID,918.2,VALID,0,VALID,98.0636,VALID,-0.0339617,VALID,20.1747,VALID,16,VALID,0.071766,
2004-02-05, 00:12:00,VALID,918.174,VALID,0,VALID,97.7597,VALID,-0.0169808,VALID,20.2001,VALID,16,VALID,0.211119,
2004-02-05, 00:13:00,VALID,918.159,VALID,0,VALID,97.3604,VALID,-0.0339617,VALID,20.2294,VALID,16,VALID,0.208398,
2004-02-05, 00:14:00,VALID,918.141,VALID,0,VALID,96.6559,VALID,-0.0169808,VALID,20.2038,VALID,15,VALID,0.302269,
2004-02-05, 00:15:00,VALID,918.14,VALID,0,VALID,96.455,VALID,-0.0169808,VALID,20.168,VALID,13,VALID,0.331321,
2004-02-05, 00:16:00,VALID,918.138,VALID,0,VALID,96.2617,VALID,0,VALID,20.1422,VALID,12,VALID,0.305233,
2004-02-05, 00:17:00,VALID,918.161,VALID,0,VALID,96.427,VALID,-0.0169808,VALID,20.1355,VALID,8,VALID,0.35411,
2004-02-05, 00:18:00,VALID,918.165,VALID,0,VALID,96.4423,VALID,0,VALID,20.1514,VALID,1,VALID,0.486328,
2004-02-05, 00:19:00,VALID,918.178,VALID,0,VALID,96.5288,VALID,0,VALID,20.1576,VALID,358,VALID,0.675781,
2004-02-05, 00:20:00,VALID,918.186,VALID,0,VALID,96.5707,VALID,0,VALID,20.1807,VALID,2,VALID,0.709413,
2004-02-05, 00:21:00,VALID,918.176,VALID,0,VALID,96.4169,VALID,-0.0339617,VALID,20.2043,VALID,354,VALID,0.829033,
2004-02-05, 00:22:00,VALID,918.181,VALID,0,VALID,96.2376,VALID,-0.0169808,VALID,20.2033,VALID,352,VALID,0.78218,
2004-02-05, 00:23:00,VALID,918.15,VALID,0,VALID,96.2388,VALID,-0.0169808,VALID,20.242,VALID,353,VALID,0.665015,
2004-02-05, 00:24:00,VALID,918.12,VALID,0,VALID,96.1829,VALID,0,VALID,20.2743,VALID,355,VALID,0.69407,
2004-02-05, 00:25:00,VALID,918.083,VALID,0,VALID,96.0583,VALID,-0.0509425,VALID,20.2843,VALID,350,VALID,0.625381,
2004-02-05, 00:26:00,VALID,918.049,VALID,0,VALID,96.0901,VALID,-0.0339617,VALID,20.3198,VALID,341,VALID,0.571429,
2004-02-05, 00:27:00,VALID,918.021,VALID,0,VALID,96.0303,VALID,-0.0509425,VALID,20.329,VALID,337,VALID,0.398801,
2004-02-05, 00:28:00,VALID,917.995,VALID,0,VALID,95.9273,VALID,-0.0679233,VALID,20.3451,VALID,336,VALID,0.152616,
2004-02-05, 00:29:00,VALID,917.992,VALID,0,VALID,95.9311,VALID,-0.0169808,VALID,20.3519,VALID,306,VALID,0.450747,
2004-02-05, 00:30:00,VALID,917.975,VALID,0,VALID,96.0596,VALID,0,VALID,20.3422,VALID,293,VALID,0.214753,
2004-02-05, 00:31:00,VALID,917.985,VALID,0,VALID,96.0837,VALID,-0.0339617,VALID,20.3292,VALID,293,VALID,0.0820313,
2004-02-05, 00:32:00,VALID,918.002,VALID,0,VALID,96.2071,VALID,-0.0509425,VALID,20.3099,VALID,293,VALID,0.0557528,
2004-02-05, 00:33:00,VALID,918.032,VALID,0,VALID,96.3482,VALID,-0.0169808,VALID,20.3066,VALID,293,VALID,0,
2004-02-05, 00:34:00,VALID,918.061,VALID,0,VALID,96.5033,VALID,-0.0339617,VALID,20.3168,VALID,293,VALID,0,
2004-02-05, 00:35:00,VALID,918.092,VALID,0,VALID,96.3482,VALID,-0.0509425,VALID,20.3233,VALID,293,VALID,0,
2004-02-05, 00:36:00,VALID,918.117,VALID,0,VALID,96.2554,VALID,-0.0679233,VALID,20.2875,VALID,293,VALID,0.121433,
2004-02-05, 00:37:00,VALID,918.136,VALID,0,VALID,96.5504,VALID,-0.0339617,VALID,20.291,VALID,293,VALID,0.0234375,
2004-02-05, 00:38:00,VALID,918.169,VALID,0,VALID,96.7488,VALID,-0.0169808,VALID,20.3071,VALID,294,VALID,0.289453,
2004-02-05, 00:39:00,VALID,918.181,VALID,0,VALID,96.8301,VALID,-0.0339617,VALID,20.336,VALID,294,VALID,0.0102896,
2004-02-05, 00:40:00,VALID,918.203,VALID,0,VALID,97.0794,VALID,-0.0509425,VALID,20.3551,VALID,294,VALID,0.413876,
2004-02-05, 00:41:00,VALID,918.202,VALID,0,VALID,97.4443,VALID,-0.0339617,VALID,20.4011,VALID,294,VALID,0.181362,
2004-02-05, 00:42:00,VALID,918.217,VALID,0,VALID,97.6007,VALID,-0.0509425,VALID,20.417,VALID,311,VALID,0.240734,
2004-02-05, 00:43:00,VALID,918.219,VALID,0,VALID,97.4583,VALID,-0.0169808,VALID,20.4301,VALID,344,VALID,0.533681,
2004-02-05, 00:44:00,VALID,918.211,VALID,0,VALID,96.9688,VALID,0,VALID,20.3898,VALID,343,VALID,0.4109,
2004-02-05, 00:45:00,VALID,918.189,VALID,0,VALID,97.012,VALID,0.0169808,VALID,20.3734,VALID,315,VALID,0.514205,
2004-02-05, 00:46:00,VALID,918.135,VALID,0,VALID,96.7666,VALID,0,VALID,20.3737,VALID,337,VALID,0.436311,
2004-02-05, 00:47:00,VALID,918.073,VALID,0,VALID,96.7475,VALID,0,VALID,20.3998,VALID,336,VALID,0.448765,
2004-02-05, 00:48:00,VALID,918.018,VALID,0,VALID,96.5758,VALID,0.0339617,VALID,20.4052,VALID,270,VALID,0.403993,
2004-02-05, 00:49:00,VALID,917.959,VALID,0,VALID,96.7818,VALID,0.0169808,VALID,20.4249,VALID,225,VALID,0.569586,
2004-02-05, 00:50:00,VALID,917.9,VALID,0,VALID,97.115,VALID,0.0679233,VALID,20.4281,VALID,225,VALID,0.337936,
2004-02-05, 00:51:00,VALID,917.87,VALID,0,VALID,97.3172,VALID,0.0169808,VALID,20.4316,VALID,225,VALID,0.0976563,
2004-02-05, 00:52:00,VALID,917.851,VALID,0,VALID,97.5448,VALID,0.0169808,VALID,20.4378,VALID,225,VALID,0,
2004-02-05, 00:53:00,VALID,917.846,VALID,0,VALID,97.6338,VALID,0.0169808,VALID,20.447,VALID,225,VALID,0,
2004-02-05, 00:54:00,VALID,917.841,VALID,0,VALID,97.5333,VALID,0,VALID,20.451,VALID,225,VALID,0.0973958,
2004-02-05, 00:55:00,VALID,917.847,VALID,0,VALID,97.6147,VALID,0.0509425,VALID,20.451,VALID,225,VALID,0.264695,
2004-02-05, 00:56:00,VALID,917.86,VALID,0,VALID,97.6541,VALID,0.0339617,VALID,20.451,VALID,201,VALID,0.490625,
2004-02-05, 00:57:00,VALID,917.871,VALID,0,VALID,97.0654,VALID,0,VALID,20.4119,VALID,54,VALID,0.785633,
2004-02-05, 00:58:00,VALID,917.907,VALID,0,VALID,96.572,VALID,0,VALID,20.3382,VALID,41,VALID,1.05183,
2004-02-05, 00:59:00,VALID,917.948,VALID,0,VALID,96.4766,VALID,-0.0849042,VALID,20.2905,VALID,25,VALID,0.994665,
2004-02-05, 01:00:00,VALID,917.984,VALID,0,VALID,96.3864,VALID,-0.101885,VALID,20.2552,VALID,20,VALID,1.10703,
2004-02-05, 01:01:00,VALID,918.015,VALID,0,VALID,96.263,VALID,-0.101885,VALID,20.2132,VALID,16,VALID,1.29531,
2004-02-05, 01:02:00,VALID,918.029,VALID,0,VALID,96.0583,VALID,-0.101885,VALID,20.178,VALID,11,VALID,1.53646,
2004-02-05, 01:03:00,VALID,918.034,VALID,0,VALID,96.0735,VALID,-0.101885,VALID,20.1688,VALID,18,VALID,1.14118,
2004-02-05, 01:04:00,VALID,918.022,VALID,0,VALID,95.7874,VALID,-0.101885,VALID,20.1715,VALID,10,VALID,1.65091,
2004-02-05, 01:05:00,VALID,917.994,VALID,0,VALID,95.4098,VALID,-0.0679233,VALID,20.1876,VALID,12,VALID,1.43306,
2004-02-05, 01:06:00,VALID,917.955,VALID,0,VALID,95.2851,VALID,-0.0679233,VALID,20.2207,VALID,14,VALID,1.35449,
2004-02-05, 01:07:00,VALID,917.904,VALID,0,VALID,95.3246,VALID,-0.101885,VALID,20.2232,VALID,7,VALID,0.759629,
2004-02-05, 01:08:00,VALID,917.871,VALID,0,VALID,95.2152,VALID,-0.101885,VALID,20.2423,VALID,2,VALID,0.822141,
2004-02-05, 01:09:00,VALID,917.828,VALID,0,VALID,95.0753,VALID,-0.0679233,VALID,20.249,VALID,7,VALID,0.498633,
2004-02-05, 01:10:00,VALID,917.798,VALID,0,VALID,95.144,VALID,-0.0849042,VALID,20.2584,VALID,6,VALID,0.351563,
2004-02-05, 01:11:00,VALID,917.78,VALID,0,VALID,95.0028,VALID,-0.0509425,VALID,20.2781,VALID,6,VALID,0.0367187,
2004-02-05, 01:12:00,VALID,917.766,VALID,0,VALID,94.7663,VALID,-0.0849042,VALID,20.3032,VALID,6,VALID,0,
2004-02-05, 01:13:00,VALID,917.741,VALID,0,VALID,94.381,VALID,-0.0849042,VALID,20.3029,VALID,6,VALID,0.268945,
2004-02-05, 01:14:00,VALID,917.747,VALID,0,VALID,94.4713,VALID,0,VALID,20.3444,VALID,12,VALID,0.570131,
2004-02-05, 01:15:00,VALID,917.75,VALID,0,VALID,94.5107,VALID,0.0169808,VALID,20.3734,VALID,12,VALID,0.873728,
2004-02-05, 01:16:00,VALID,917.768,VALID,0,VALID,94.4637,VALID,0.0169808,VALID,20.3861,VALID,14,VALID,1.05288,
2004-02-05, 01:17:00,VALID,917.785,VALID,0,VALID,94.4713,VALID,0,VALID,20.3665,VALID,20,VALID,1.08464,
2004-02-05, 01:18:00,VALID,917.8,VALID,0,VALID,94.484,VALID,0.0339617,VALID,20.3476,VALID,18,VALID,1.26163,
2004-02-05, 01:19:00,VALID,917.804,VALID,0,VALID,93.9983,VALID,0.0169808,VALID,20.2922,VALID,5,VALID,1.68242,
2004-02-05, 01:20:00,VALID,917.811,VALID,0,VALID,93.6816,VALID,0,VALID,20.3024,VALID,13,VALID,1.37367,
2004-02-05, 01:21:00,VALID,917.804,VALID,0,VALID,92.8017,VALID,0.0169808,VALID,20.3188,VALID,360,VALID,1.5694,
2004-02-05, 01:22:00,VALID,917.783,VALID,0,VALID,92.5308,VALID,0.0339617,VALID,20.3573,VALID,9,VALID,1.66867,
2004-02-05, 01:23:00,VALID,917.773,VALID,0,VALID,92.115,VALID,-0.0169808,VALID,20.3995,VALID,2,VALID,1.27401,
2004-02-05, 01:24:00,VALID,917.752,VALID,0,VALID,91.965,VALID,0,VALID,20.4149,VALID,355,VALID,1.0093,
2004-02-05, 01:25:00,VALID,917.735,VALID,0,VALID,91.9586,VALID,0,VALID,20.4477,VALID,350,VALID,1.0698,
2004-02-05, 01:26:00,VALID,917.685,VALID,0,VALID,91.8938,VALID,0,VALID,20.4671,VALID,360,VALID,0.932118,
2004-02-05, 01:27:00,VALID,917.651,VALID,0,VALID,91.9472,VALID,0.0169808,VALID,20.4671,VALID,355,VALID,0.852289,
2004-02-05, 01:28:00,VALID,917.618,VALID,0,VALID,92.1099,VALID,0.0339617,VALID,20.4698,VALID,7,VALID,0.839944,
2004-02-05, 01:29:00,VALID,917.605,VALID,0,VALID,92.2117,VALID,-0.0679233,VALID,20.4843,VALID,7,VALID,0.710193,
2004-02-05, 01:30:00,VALID,917.566,VALID,0,VALID,92.335,VALID,-0.0509425,VALID,20.4873,VALID,5,VALID,0.645139,
2004-02-05, 01:31:00,VALID,917.554,VALID,0,VALID,92.3287,VALID,-0.0509425,VALID,20.4905,VALID,5,VALID,0.773983,
2004-02-05, 01:32:00,VALID,917.524,VALID,0,VALID,92.4673,VALID,-0.0339617,VALID,20.4811,VALID,5,VALID,0.605015,
2004-02-05, 01:33:00,VALID,917.503,VALID,0,VALID,92.5245,VALID,-0.0849042,VALID,20.4845,VALID,6,VALID,0.674805,
2004-02-05, 01:34:00,VALID,917.495,VALID,0,VALID,91.937,VALID,-0.0849042,VALID,20.449,VALID,4,VALID,0.91353,
2004-02-05, 01:35:00,VALID,917.513,VALID,0,VALID,91.67,VALID,-0.0679233,VALID,20.4458,VALID,16,VALID,1.0129,
2004-02-05, 01:36:00,VALID,917.525,VALID,0,VALID,91.3991,VALID,-0.0849042,VALID,20.4393,VALID,17,VALID,0.96596,
2004-02-05, 01:37:00,VALID,917.549,VALID,0,VALID,91.6267,VALID,-0.0509425,VALID,20.4391,VALID,14,VALID,0.837891,
2004-02-05, 01:38:00,VALID,917.572,VALID,0,VALID,91.0558,VALID,-0.0339617,VALID,20.4358,VALID,21,VALID,1.01637,
2004-02-05, 01:39:00,VALID,917.591,VALID,0,VALID,91.0062,VALID,-0.0849042,VALID,20.4323,VALID,17,VALID,0.835069,
2004-02-05, 01:40:00,VALID,917.614,VALID,0,VALID,90.9464,VALID,-0.0679233,VALID,20.4458,VALID,10,VALID,0.712081,
2004-02-05, 01:41:00,VALID,917.616,VALID,0,VALID,90.8892,VALID,-0.101885,VALID,20.4517,VALID,10,VALID,0.571484,
2004-02-05, 01:42:00,VALID,917.628,VALID,0,VALID,90.8129,VALID,-0.0849042,VALID,20.4619,VALID,9,VALID,0.475836,
2004-02-05, 01:43:00,VALID,917.623,VALID,0,VALID,90.8523,VALID,-0.0509425,VALID,20.4714,VALID,9,VALID,0.261133,
2004-02-05, 01:44:00,VALID,917.635,VALID,0,VALID,90.7722,VALID,0.0509425,VALID,20.4758,VALID,10,VALID,0.403706,
2004-02-05, 01:45:00,VALID,917.636,VALID,0,VALID,90.7887,VALID,0.101885,VALID,20.4758,VALID,7,VALID,0.488582,
2004-02-05, 01:46:00,VALID,917.627,VALID,0,VALID,90.8231,VALID,0.0339617,VALID,20.4663,VALID,1,VALID,0.629297,
2004-02-05, 01:47:00,VALID,917.62,VALID,0,VALID,90.1911,VALID,0.0849042,VALID,20.4825,VALID,344,VALID,0.636161,
2004-02-05, 01:48:00,VALID,917.591,VALID,0,VALID,90.1924,VALID,0.101885,VALID,20.5078,VALID,338,VALID,0.648624,
2004-02-05, 01:49:00,VALID,917.555,VALID,0,VALID,90.2534,VALID,0.0509425,VALID,20.5239,VALID,340,VALID,0.617001,
2004-02-05, 01:50:00,VALID,917.521,VALID,0,VALID,89.8554,VALID,0.0509425,VALID,20.5245,VALID,346,VALID,0.853871,
2004-02-05, 01:51:00,VALID,917.496,VALID,0,VALID,90.1428,VALID,0.0679233,VALID,20.5404,VALID,351,VALID,0.628815,
2004-02-05, 01:52:00,VALID,917.469,VALID,0,VALID,90.1479,VALID,0.0849042,VALID,20.5274,VALID,1,VALID,1.04906,
2004-02-05, 01:53:00,VALID,917.432,VALID,0,VALID,88.7351,VALID,0.0509425,VALID,20.5145,VALID,4,VALID,1.08049,
2004-02-05, 01:54:00,VALID,917.421,VALID,0,VALID,88.7872,VALID,0.0849042,VALID,20.556,VALID,360,VALID,0.797877,
2004-02-05, 01:55:00,VALID,917.404,VALID,0,VALID,88.2633,VALID,0.0679233,VALID,20.5694,VALID,357,VALID,0.899581,
2004-02-05, 01:56:00,VALID,917.387,VALID,0,VALID,88.2176,VALID,0.0509425,VALID,20.6017,VALID,353,VALID,0.602121,
2004-02-05, 01:57:00,VALID,917.368,VALID,0,VALID,88.7923,VALID,0.0849042,VALID,20.6243,VALID,355,VALID,0.207813,
2004-02-05, 01:58:00,VALID,917.349,VALID,0,VALID,88.7491,VALID,0.101885,VALID,20.6243,VALID,355,VALID,0.149554,
2004-02-05, 01:59:00,VALID,917.344,VALID,0,VALID,87.8259,VALID,0,VALID,20.6256,VALID,355,VALID,0.318892,
2004-02-05, 02:00:00,VALID,917.332,VALID,0,VALID,88.1336,VALID,0,VALID,20.6224,VALID,355,VALID,0.131904,
2004-02-05, 02:01:00,VALID,917.315,VALID,0,VALID,88.2417,VALID,0,VALID,20.6552,VALID,355,VALID,0,
2004-02-05, 02:02:00,VALID,917.308,VALID,0,VALID,88.0751,VALID,-0.0169808,VALID,20.6743,VALID,355,VALID,0.0651634,
2004-02-05, 02:03:00,VALID,917.309,VALID,0,VALID,88.922,VALID,-0.0169808,VALID,20.6873,VALID,355,VALID,0.384337,
2004-02-05, 02:04:00,VALID,917.3,VALID,0,VALID,90.2636,VALID,-0.0169808,VALID,20.69,VALID,356,VALID,0.459302,
2004-02-05, 02:05:00,VALID,917.295,VALID,0,VALID,90.2165,VALID,-0.0169808,VALID,20.6068,VALID,6,VALID,0.644271,
2004-02-05, 02:06:00,VALID,917.286,VALID,0,VALID,90.8167,VALID,-0.0509425,VALID,20.5454,VALID,10,VALID,0.678445,
2004-02-05, 02:07:00,VALID,917.285,VALID,0,VALID,89.4091,VALID,-0.0509425,VALID,20.442,VALID,15,VALID,0.90483,
2004-02-05, 02:08:00,VALID,917.264,VALID,0,VALID,89.1204,VALID,0,VALID,20.41,VALID,18,VALID,0.522727,
2004-02-05, 02:09:00,VALID,917.249,VALID,0,VALID,89.3874,VALID,-0.0339617,VALID,20.3834,VALID,28,VALID,0.405134,
2004-02-05, 02:10:00,VALID,917.227,VALID,0,VALID,88.9258,VALID,0,VALID,20.3869,VALID,28,VALID,0.209162,
2004-02-05, 02:11:00,VALID,917.2,VALID,0,VALID,88.6092,VALID,0,VALID,20.3839,VALID,28,VALID,0.0745739,
2004-02-05, 02:12:00,VALID,917.201,VALID,0,VALID,88.9678,VALID,-0.0169808,VALID,20.403,VALID,28,VALID,0.0490552,
2004-02-05, 02:13:00,VALID,917.2,VALID,0,VALID,89.5629,VALID,-0.0679233,VALID,20.4097,VALID,28,VALID,0.291921,
2004-02-05, 02:14:00,VALID,917.198,VALID,0,VALID,89.3684,VALID,-0.0169808,VALID,20.403,VALID,78,VALID,0.472222,
2004-02-05, 02:15:00,VALID,917.175,VALID,0,VALID,89.4498,VALID,-0.0339617,VALID,20.3839,VALID,93,VALID,0.450817,
2004-02-05, 02:16:00,VALID,917.146,VALID,0,VALID,89.3048,VALID,0,VALID,20.3548,VALID,94,VALID,0.293423,
2004-02-05, 02:17:00,VALID,917.096,VALID,0,VALID,89.7918,VALID,0,VALID,20.3315,VALID,94,VALID,0.247713,
2004-02-05, 02:18:00,VALID,917.051,VALID,0,VALID,90.022,VALID,-0.0169808,VALID,20.3185,VALID,94,VALID,0.0372456,
2004-02-05, 02:19:00,VALID,916.998,VALID,0,VALID,89.7155,VALID,-0.0339617,VALID,20.3161,VALID,94,VALID,0,
2004-02-05, 02:20:00,VALID,916.956,VALID,0,VALID,89.9024,VALID,-0.0339617,VALID,20.2897,VALID,94,VALID,0,
2004-02-05, 02:21:00,VALID,916.935,VALID,0,VALID,90.1059,VALID,-0.0509425,VALID,20.2873,VALID,94,VALID,0,
2004-02-05, 02:22:00,VALID,916.905,VALID,0,VALID,90.7964,VALID,0,VALID,20.293,VALID,94,VALID,0,
2004-02-05, 02:23:00,VALID,916.889,VALID,0,VALID,91.408,VALID,-0.0169808,VALID,20.293,VALID,94,VALID,0,
2004-02-05, 02:24:00,VALID,916.891,VALID,0,VALID,90.8638,VALID,-0.0339617,VALID,20.2741,VALID,94,VALID,0.15734,
2004-02-05, 02:25:00,VALID,916.897,VALID,0,VALID,89.4383,VALID,-0.0169808,VALID,20.2574,VALID,94,VALID,0.0970204,
2004-02-05, 02:26:00,VALID,916.914,VALID,0,VALID,88.9932,VALID,-0.0339617,VALID,20.3193,VALID,94,VALID,0.0121951,
2004-02-05, 02:27:00,VALID,916.926,VALID,0,VALID,88.5278,VALID,-0.0169808,VALID,20.3613,VALID,94,VALID,0.0230655,
2004-02-05, 02:28:00,VALID,916.938,VALID,0,VALID,88.6334,VALID,-0.0339617,VALID,20.4127,VALID,94,VALID,0.270059,
2004-02-05, 02:29:00,VALID,916.955,VALID,0,VALID,88.6893,VALID,-0.0339617,VALID,20.4291,VALID,218,VALID,0.538491,
2004-02-05, 02:30:00,VALID,916.97,VALID,0,VALID,88.5126,VALID,0,VALID,20.4224,VALID,224,VALID,0.29375,
2004-02-05, 02:31:00,VALID,916.966,VALID,0,VALID,88.9551,VALID,-0.0339617,VALID,20.4259,VALID,233,VALID,0.395041,
2004-02-05, 02:32:00,VALID,916.95,VALID,0,VALID,88.6817,VALID,-0.0169808,VALID,20.4323,VALID,291,VALID,0.507457,
2004-02-05, 02:33:00,VALID,916.913,VALID,0,VALID,88.4693,VALID,-0.0509425,VALID,20.4192,VALID,291,VALID,0.390807,
2004-02-05, 02:34:00,VALID,916.866,VALID,0,VALID,88.6436,VALID,-0.0169808,VALID,20.4194,VALID,291,VALID,0.0839844,
2004-02-05, 02:35:00,VALID,916.814,VALID,0,VALID,89.0556,VALID,-0.0339617,VALID,20.4192,VALID,276,VALID,0.283296,
2004-02-05, 02:36:00,VALID,916.767,VALID,0,VALID,89.2692,VALID,-0.0169808,VALID,20.4167,VALID,264,VALID,0.0575457,
2004-02-05, 02:37:00,VALID,916.74,VALID,0,VALID,89.5235,VALID,0,VALID,20.3998,VALID,264,VALID,0,
2004-02-05, 02:38:00,VALID,916.721,VALID,0,VALID,89.7804,VALID,-0.0339617,VALID,20.3966,VALID,264,VALID,0,
2004-02-05, 02:39:00,VALID,916.72,VALID,0,VALID,89.9749,VALID,-0.0339617,VALID,20.3936,VALID,264,VALID,0,
2004-02-05, 02:40:00,VALID,916.734,VALID,0,VALID,90.5001,VALID,-0.0339617,VALID,20.3578,VALID,264,VALID,0,
2004-02-05, 02:41:00,VALID,916.76,VALID,0,VALID,90.5535,VALID,-0.0679233,VALID,20.3223,VALID,264,VALID,0,
2004-02-05, 02:42:00,VALID,916.79,VALID,0,VALID,90.6298,VALID,-0.0339617,VALID,20.2967,VALID,264,VALID,0,
2004-02-05, 02:43:00,VALID,916.835,VALID,0,VALID,90.8816,VALID,-0.0679233,VALID,20.2746,VALID,264,VALID,0,
2004-02-05, 02:44:00,VALID,916.865,VALID,0,VALID,91.3711,VALID,-0.0679233,VALID,20.2227,VALID,264,VALID,0.0356105,
2004-02-05, 02:45:00,VALID,916.894,VALID,0,VALID,91.5937,VALID,-0.0509425,VALID,20.1516,VALID,264,VALID,0.204723,
2004-02-05, 02:46:00,VALID,916.895,VALID,0,VALID,92.0654,VALID,-0.0339617,VALID,20.048,VALID,264,VALID,0.209635,
2004-02-05, 02:47:00,VALID,916.911,VALID,0,VALID,92.6351,VALID,-0.0169808,VALID,19.9703,VALID,264,VALID,0.0427083,
2004-02-05, 02:48:00,VALID,916.909,VALID,0,VALID,92.8042,VALID,0,VALID,19.9151,VALID,264,VALID,0.131597,
2004-02-05, 02:49:00,VALID,916.922,VALID,0,VALID,92.8678,VALID,-0.0679233,VALID,19.8547,VALID,286,VALID,0.355646,
2004-02-05, 02:50:00,VALID,916.935,VALID,0,VALID,93.2607,VALID,-0.0679233,VALID,19.78,VALID,34,VALID,1.05669,
2004-02-05, 02:51:00,VALID,916.95,VALID,0,VALID,93.7592,VALID,-0.0679233,VALID,19.6863,VALID,46,VALID,1.4375,
2004-02-05, 02:52:00,VALID,916.957,VALID,0,VALID,94.0962,VALID,-0.0509425,VALID,19.6416,VALID,50,VALID,1.17067,
2004-02-05, 02:53:00,VALID,916.953,VALID,0,VALID,94.245,VALID,-0.101885,VALID,19.6098,VALID,55,VALID,0.988281,
2004-02-05, 02:54:00,VALID,916.931,VALID,0,VALID,94.3721,VALID,-0.0169808,VALID,19.6125,VALID,66,VALID,0.651972,
2004-02-05, 02:55:00,VALID,916.886,VALID,0,VALID,93.9385,VALID,-0.0679233,VALID,19.6575,VALID,88,VALID,0.743555,
2004-02-05, 02:56:00,VALID,916.841,VALID,0,VALID,93.7173,VALID,-0.0679233,VALID,19.6771,VALID,111,VALID,1.09302,
2004-02-05, 02:57:00,VALID,916.773,VALID,0,VALID,93.9169,VALID,-0.0679233,VALID,19.6709,VALID,130,VALID,1.39249,
2004-02-05, 02:58:00,VALID,916.722,VALID,0,VALID,94.3175,VALID,-0.0679233,VALID,19.6381,VALID,136,VALID,1.38262,
2004-02-05, 02:59:00,VALID,916.641,VALID,0,VALID,94.4421,VALID,-0.0339617,VALID,19.5929,VALID,141,VALID,1.34189,
2004-02-05, 03:00:00,VALID,916.578,VALID,0,VALID,94.8108,VALID,-0.0509425,VALID,19.5867,VALID,146,VALID,1.38643,
2004-02-05, 03:01:00,VALID,916.533,VALID,0,VALID,95.3475,VALID,-0.0169808,VALID,19.5773,VALID,143,VALID,1.44913,
2004-02-05, 03:02:00,VALID,916.503,VALID,0,VALID,96.0036,VALID,-0.0509425,VALID,19.5415,VALID,141,VALID,1.37258,
2004-02-05, 03:03:00,VALID,916.503,VALID,0,VALID,96.6508,VALID,-0.0849042,VALID,19.5226,VALID,137,VALID,1.43192,
2004-02-05, 03:04:00,VALID,916.504,VALID,0,VALID,97.218,VALID,-0.0169808,VALID,19.4864,VALID,114,VALID,1.36446,
2004-02-05, 03:05:00,VALID,916.515,VALID,0,VALID,97.5842,VALID,-0.0169808,VALID,19.4643,VALID,76,VALID,0.957698,
2004-02-05, 03:06:00,VALID,916.536,VALID,0,VALID,97.7584,VALID,-0.0509425,VALID,19.4091,VALID,84,VALID,1.03977,
2004-02-05, 03:07:00,VALID,916.537,VALID,0,VALID,98.0763,VALID,-0.0679233,VALID,19.3935,VALID,97,VALID,1.21928,
2004-02-05, 03:08:00,VALID,916.525,VALID,0,VALID,98.2632,VALID,-0.0509425,VALID,19.3741,VALID,90,VALID,1.15777,
2004-02-05, 03:09:00,VALID,916.513,VALID,0,VALID,98.3561,VALID,-0.0509425,VALID,19.3582,VALID,90,VALID,1.00284,
2004-02-05, 03:10:00,VALID,916.493,VALID,0,VALID,98.4095,VALID,-0.0509425,VALID,19.3284,VALID,89,VALID,0.833807,
2004-02-05, 03:11:00,VALID,916.469,VALID,0,VALID,98.4324,VALID,-0.0679233,VALID,19.3259,VALID,89,VALID,0.772693,
2004-02-05, 03:12:00,VALID,916.448,VALID,0,VALID,98.426,VALID,-0.101885,VALID,19.3294,VALID,100,VALID,0.899926,
2004-02-05, 03:13:00,VALID,916.431,VALID,0,VALID,98.482,VALID,-0.0679233,VALID,19.3323,VALID,103,VALID,0.956174,
2004-02-05, 03:14:00,VALID,916.405,VALID,0,VALID,98.5583,VALID,0.0509425,VALID,19.3272,VALID,106,VALID,1.10528,
2004-02-05, 03:15:00,VALID,916.367,VALID,0,VALID,98.6384,VALID,0.0169808,VALID,19.3532,VALID,110,VALID,1.2846,
2004-02-05, 03:16:00,VALID,916.35,VALID,0,VALID,98.6574,VALID,0,VALID,19.3602,VALID,123,VALID,1.31931,
2004-02-05, 03:17:00,VALID,916.33,VALID,0,VALID,98.7477,VALID,0.0339617,VALID,19.3694,VALID,128,VALID,1.2686,
2004-02-05, 03:18:00,VALID,916.301,VALID,0,VALID,98.6981,VALID,0.0509425,VALID,19.3925,VALID,120,VALID,1.1746,
2004-02-05, 03:19:00,VALID,916.287,VALID,0,VALID,98.6282,VALID,0.0169808,VALID,19.4151,VALID,124,VALID,1.43342,
2004-02-05, 03:20:00,VALID,916.314,VALID,0,VALID,98.3968,VALID,0.0509425,VALID,19.4243,VALID,132,VALID,1.23935,
2004-02-05, 03:21:00,VALID,916.341,VALID,0,VALID,98.2175,VALID,0.0679233,VALID,19.4407,VALID,132,VALID,0.943004,
2004-02-05, 03:22:00,VALID,916.354,VALID,0,VALID,98.089,VALID,0.0169808,VALID,19.4504,VALID,128,VALID,0.781613,
2004-02-05, 03:23:00,VALID,916.385,VALID,0,VALID,98.014,VALID,0.0339617,VALID,19.4667,VALID,127,VALID,0.935296,
2004-02-05, 03:24:00,VALID,916.404,VALID,0,VALID,98.0013,VALID,0.0339617,VALID,19.4571,VALID,123,VALID,0.876868,
2004-02-05, 03:25:00,VALID,916.402,VALID,0,VALID,98.0127,VALID,0.0679233,VALID,19.4536,VALID,121,VALID,0.948661,
2004-02-05, 03:26:00,VALID,916.409,VALID,0,VALID,98.014,VALID,0.0509425,VALID,19.46,VALID,108,VALID,0.485742,
2004-02-05, 03:27:00,VALID,916.406,VALID,0,VALID,97.972,VALID,0.0169808,VALID,19.47,VALID,112,VALID,0.701672,
2004-02-05, 03:28:00,VALID,916.421,VALID,0,VALID,97.9517,VALID,0.0169808,VALID,19.46,VALID,120,VALID,0.979936,
2004-02-05, 03:29:00,VALID,916.421,VALID,0,VALID,97.8894,VALID,-0.0509425,VALID,19.4806,VALID,123,VALID,1.03203,
2004-02-05, 03:30:00,VALID,916.418,VALID,0,VALID,97.8029,VALID,0,VALID,19.4876,VALID,123,VALID,0.926417,
2004-02-05, 03:31:00,VALID,916.408,VALID,0,VALID,97.7063,VALID,0,VALID,19.4908,VALID,121,VALID,1.05705,
2004-02-05, 03:32:00,VALID,916.404,VALID,0,VALID,97.6173,VALID,-0.0679233,VALID,19.5005,VALID,118,VALID,1.04531,
2004-02-05, 03:33:00,VALID,916.386,VALID,0,VALID,97.4532,VALID,-0.0169808,VALID,19.5239,VALID,114,VALID,0.911519,
2004-02-05, 03:34:00,VALID,916.382,VALID,0,VALID,97.4138,VALID,-0.0679233,VALID,19.5201,VALID,110,VALID,0.683308,
2004-02-05, 03:35:00,VALID,916.356,VALID,0,VALID,97.4024,VALID,-0.0339617,VALID,19.5102,VALID,111,VALID,0.791424,